Weather in Usady

Russia / Republic of Tatarstan     55°40′44″N   49°13′09″E
В апреле 2022 года жителям России запретили посещать сайт meteo.paraplan.net по решению Генеральной прокуратуры. Аудитория сайта уменьшилась в 10 раз. Владельцы сайта не видят смысла в поддержке погодного сервера в таких условиях. Сайт будет закрыт в октябре.
temp.,
°C
wind,
m/s
gust,
m/s
humid.,
%
clouds,
%
prec.,
mm/h
press.,
hPa
HPBL,
m
30 september, fri
fri3000:00+8ese3595100 0.1 1017249
03:00+7e3495100 0.2 1019211
06:00+7e3494100 0.0 1021215
09:00+8ese3489100 0.1 1023289
12:00+10ese4482100 0.0 1024465
15:00+10ese4579100 0.0 1024456
18:00+9e3785100 0.0 1025250
21:00+9se4887100 0.0 1025282
1 october, sat
sat100:00+7se3891100 0.0 1025217
03:00+7se3793100 0.0 1025194
06:00+8se4890100 0.0 1025263
09:00+10sse567638 0.0 1024401
12:00+14sse566510 0.0 1023604
15:00+14sse566458 0.0 1022673
18:00+12se497875 0.0 1021256
21:00+12sse51077100 0.0 1020315
2 october, sun
sun200:00+11sse51180100 0.0 1018304
03:00+11sse51383100 0.0 1017308
06:00+11sse6158480 0.0 1015360
09:00+15sse81673100 0.0 1014590
12:00+19s9146598 0.1 10121008
15:00+17s8137498 0.5 1012822
18:00+15s61385100 0.4 1013472
21:00+14s61291100 0.8 1012379
3 october, mon
mon300:00+14sse5995100 0.3 1012281
03:00+14sse51193100 0.8 1013368
06:00+14sse7139599 0.2 1012362
09:00+16sse7148430 0.4 1013549
12:00+19s81461100 0.0 1014814
15:00+18s81552100 0.0 1015898
18:00+17s81751100 0.0 1016744
21:00+15sse8175192 0.0 1017745
4 october, tue
tue400:00+15s81747100 0.0 1018827
03:00+13sse81744100 0.0 1019736
06:00+13sse81641100 0.0 1020655
09:00+13sse81540100 0.0 1021801
12:00+15sse81436100 0.0 1022985
15:00+15s71237100 0.0 10231149
18:00+14s51239100 0.0 1024727
21:00+11ssw51265100 0.3 1026717